STARLINK-5715, 55613

Orbit data source: Space-Track

STARLINK-5715, 55613 is a payload satellite owned by SpaceX/Seattle (US) in LEO that was launched on Sun, 12 Feb 2023 UTC via an FALCON 9 launch vehicle from the Air Force Eastern Test Range (AFETR). Payload-class satellites include a variety of spacecraft equipped with specific instruments for various scientific and technological missions. These include communications satellites like Starlink; space stations such as the ISS; scientific satellites like the Hubble; Earth observation satellites from companies like Planet Labs, Umbra, and HawkEye 360; GPS; miniature CubeSats for education and research; and military/defense satellites.

Not visible in the next 10 days
Identifier
55613, 2023-020AW
Orbit
LEO
Country
Flag of USUS
Related business
Manufacturer
SpaceX/Seattle
Mission
Partially operational Commercial Communications
Bus & Motor
STARLINK, Unknown motor
Mass
305 kg wet, ~290 kg dry
Launch date (UTC)
2023-02-12 (3 years ago)
Launch vehicle
FALCON 9
Launch site
Air Force Eastern Test Range (AFETR)
Object type
Payload
Rocket body
Debris
Shape & HBR
Box + 1 Pan, 10.1 m
Radar Cross Section
13.562 m², Large (>1 m²)

Expand to show TLE details & history
Last TLE update: 1 week ago

TLE from 1 week ago
0 STARLINK-5715
1 55613U 23020AW  25330.81454867  .07605346  93141-5  54963-3 0  9997
2 55613  42.9848 154.9939 0005163 278.4565  81.5742 16.39809306154001
Epoch: 2025-11-26T19:32Z
TLE epoch observation values (Epoch: 2025-11-26T19:32:57.005Z)
Latitude
-0.00002°
Longitude
155.77595°
Altitude
165.579 km
Speed
7.809 km/s
True Right ascension
10h 19m 58s
True Declination
0° 00' 00"
Sunlit
Object was in daylight at epoch
Visualization orbit readout
Latitude
Unknown
Longitude
Unknown
Altitude
Unknown
Speed
Unknown
Apparent Right ascension
Unknown
Apparent Declination
Unknown
Sunlit
N/A
Visualization observer readout
Local Sidereal Time
02:09:41
Azimuth
Unknown
Elevation
Unknown
Doppler factor
Unknown
Orbital elements
Apogee altitude
171.731 km
Perigee altitude
164.972 km
Semi-major axis
6,546.488 km
Eccentricity
0.00052
Inclination
42.9848°
RAAN
154.9939°
Arg. of periapsis
278.4565°
True anomaly
81.63273°
Mean anomaly
81.5742°
Eccentric anomaly
81.60346°
Mean motion
4.09761 °/min
Orbital period
87.86 mins
BSTAR
0.00054963
Loading maneuver chart data...
Computing Atmospheric mass density...
Loading historical data...
Loading historical data...
Loading historical data...
Loading historical data...
Loading historical data...
Loading historical data...
Loading historical data...

Documentation

Showing up to 5 results
|